Terug naar catalogus

STARLINK-11137

ActiefCommunicatieVLEO
NORAD 60050·PAYLOAD·🇺🇸 United States

Gelanceerd Jun 8, 2024 vanaf Vandenberg Space Force Base

Loading…

Volgende Passages (komende 24 uur)

TLE

VersSource: CelesTrak SupGP

Epoch: Sep 14, 2026, 21:33 UTC

1 60050C 24112N   26257.89840278  .00073437  00000+0  60483-3 0  2573
2 60050  53.1573  53.2428 0001070  71.4553 244.1309 15.69676602    16

Volg STARLINK-11137 in realtime met AllMySat

Download on the App Store